Terminal Aerodrome Forecast
Issued by NWS

Home | Current Version | Previous Version | Text Only | Print | Product List | Glossary On
Versions: 1 2 3 4 5 6 7 8 9 10 11 12
000
FTUS44 KSJT 232320
TAFBBD
TAF
KBBD 232320Z 2400/2424 22010G18KT P6SM SKC
     FM240200 24006KT P6SM SKC
     FM241500 30011G17KT P6SM SKC
      AMD NOT SKED=

USA.gov is the U.S. government's official web portal to all federal, state and local government web resources and services.